,,Stat5,,Stat1,,Stat2,,Stat3,,Stat4,,Wind1,,Wind1,
time,status,PA1M_AVG,status,PR1M_SUM,status,RH1M_AVG,status,SR1M_AVG,status,TA1M_AVG,status,W1dAve1m,status,W1sAve1m,
2002-06-12, 00:00:01,VALID,918.033,VALID,0,VALID,98.8571,VALID,-0.118866,VALID,18.9502,VALID,118,VALID,0.435352,
2002-06-12, 00:01:00,VALID,918.023,VALID,0,VALID,98.8469,VALID,-0.101885,VALID,18.947,VALID,107,VALID,0.417857,
2002-06-12, 00:02:00,VALID,918.003,VALID,0,VALID,98.8507,VALID,-0.101885,VALID,18.9371,VALID,115,VALID,0.663603,
2002-06-12, 00:03:00,VALID,917.982,VALID,0,VALID,98.8139,VALID,-0.118866,VALID,18.9341,VALID,109,VALID,0.854297,
2002-06-12, 00:04:00,VALID,917.957,VALID,0,VALID,98.7935,VALID,-0.101885,VALID,18.9408,VALID,115,VALID,0.708333,
2002-06-12, 00:05:00,VALID,917.97,VALID,0,VALID,98.7592,VALID,-0.101885,VALID,18.944,VALID,108,VALID,0.628348,
2002-06-12, 00:06:00,VALID,917.96,VALID,0,VALID,98.7363,VALID,-0.118866,VALID,18.9468,VALID,84,VALID,0.525977,
2002-06-12, 00:07:00,VALID,917.963,VALID,0,VALID,98.7147,VALID,-0.118866,VALID,18.9636,VALID,82,VALID,0.472991,
2002-06-12, 00:08:00,VALID,917.966,VALID,0,VALID,98.6956,VALID,-0.118866,VALID,18.956,VALID,76,VALID,0.40671,
2002-06-12, 00:09:00,VALID,917.968,VALID,0,VALID,98.6765,VALID,-0.101885,VALID,18.9699,VALID,76,VALID,0.454883,
2002-06-12, 00:10:00,VALID,917.979,VALID,0,VALID,98.6358,VALID,-0.0679233,VALID,18.9622,VALID,71,VALID,0.504498,
2002-06-12, 00:11:00,VALID,917.977,VALID,0,VALID,98.5811,VALID,0.0339617,VALID,18.9583,VALID,68,VALID,0.5,
2002-06-12, 00:12:00,VALID,917.985,VALID,0,VALID,98.5277,VALID,0,VALID,18.9424,VALID,58,VALID,0.695518,
2002-06-12, 00:13:00,VALID,917.985,VALID,0,VALID,98.5087,VALID,0,VALID,18.9352,VALID,58,VALID,0.748438,
2002-06-12, 00:14:00,VALID,917.988,VALID,0,VALID,98.4858,VALID,0.0169808,VALID,18.9257,VALID,59,VALID,0.472197,
2002-06-12, 00:15:00,VALID,917.996,VALID,0,VALID,98.468,VALID,0,VALID,18.9193,VALID,59,VALID,0.362695,
2002-06-12, 00:16:00,VALID,917.999,VALID,0,VALID,98.4578,VALID,0,VALID,18.9163,VALID,59,VALID,0.147491,
2002-06-12, 00:17:00,VALID,918.012,VALID,0,VALID,98.4527,VALID,0,VALID,18.9063,VALID,59,VALID,0.0821429,
2002-06-12, 00:18:00,VALID,918.01,VALID,0,VALID,98.4362,VALID,0,VALID,18.9098,VALID,63,VALID,0.388281,
2002-06-12, 00:19:00,VALID,918.006,VALID,0,VALID,98.4464,VALID,0.0509425,VALID,18.8837,VALID,65,VALID,0.2625,
2002-06-12, 00:20:00,VALID,918.021,VALID,0,VALID,98.44,VALID,0.0169808,VALID,18.8837,VALID,69,VALID,0.379366,
2002-06-12, 00:21:00,VALID,918.015,VALID,0,VALID,98.4451,VALID,0,VALID,18.8842,VALID,72,VALID,0.353125,
2002-06-12, 00:22:00,VALID,918.023,VALID,0,VALID,98.4464,VALID,0,VALID,18.8708,VALID,72,VALID,0.303977,
2002-06-12, 00:23:00,VALID,918.038,VALID,0,VALID,98.4591,VALID,0,VALID,18.878,VALID,71,VALID,0.253571,
2002-06-12, 00:24:00,VALID,918.03,VALID,0,VALID,98.4553,VALID,0,VALID,18.8815,VALID,69,VALID,0.183594,
2002-06-12, 00:25:00,VALID,918.025,VALID,0,VALID,98.4362,VALID,0,VALID,18.8715,VALID,61,VALID,0.191518,
2002-06-12, 00:26:00,VALID,918.018,VALID,0,VALID,98.4286,VALID,0.0169808,VALID,18.8487,VALID,29,VALID,0.347656,
2002-06-12, 00:27:00,VALID,918.009,VALID,0,VALID,98.4336,VALID,0.0169808,VALID,18.8226,VALID,27,VALID,0.428711,
2002-06-12, 00:28:00,VALID,918.016,VALID,0,VALID,98.4502,VALID,0.0169808,VALID,18.8229,VALID,26,VALID,0.469934,
2002-06-12, 00:29:00,VALID,918.01,VALID,0,VALID,98.4769,VALID,0.0169808,VALID,18.8,VALID,26,VALID,0.253348,
2002-06-12, 00:30:00,VALID,918.016,VALID,0,VALID,98.5188,VALID,0,VALID,18.7906,VALID,26,VALID,0,
2002-06-12, 00:31:00,VALID,918.023,VALID,0,VALID,98.5354,VALID,0,VALID,18.7802,VALID,26,VALID,0,
2002-06-12, 00:32:00,VALID,918.03,VALID,0,VALID,98.5799,VALID,0.0169808,VALID,18.7836,VALID,26,VALID,0,
2002-06-12, 00:33:00,VALID,918.031,VALID,0,VALID,98.6244,VALID,0.0169808,VALID,18.7776,VALID,26,VALID,0,
2002-06-12, 00:34:00,VALID,918.04,VALID,0,VALID,98.6511,VALID,0.0169808,VALID,18.7809,VALID,26,VALID,0,
2002-06-12, 00:35:00,VALID,918.045,VALID,0,VALID,98.6867,VALID,0,VALID,18.7705,VALID,26,VALID,0,
2002-06-12, 00:36:00,VALID,918.047,VALID,0,VALID,98.7197,VALID,0.0169808,VALID,18.7675,VALID,26,VALID,0,
2002-06-12, 00:37:00,VALID,918.034,VALID,0,VALID,98.749,VALID,0.0169808,VALID,18.7839,VALID,26,VALID,0,
2002-06-12, 00:38:00,VALID,918.036,VALID,0,VALID,98.7604,VALID,0,VALID,18.7774,VALID,26,VALID,0.100184,
2002-06-12, 00:39:00,VALID,918.028,VALID,0,VALID,98.7821,VALID,0,VALID,18.7779,VALID,26,VALID,0.317578,
2002-06-12, 00:40:00,VALID,918.034,VALID,0,VALID,98.7973,VALID,0,VALID,18.7677,VALID,26,VALID,0.393229,
2002-06-12, 00:41:00,VALID,918.018,VALID,0,VALID,98.7922,VALID,0,VALID,18.765,VALID,40,VALID,0.485045,
2002-06-12, 00:42:00,VALID,918.019,VALID,0,VALID,98.7859,VALID,0,VALID,18.7553,VALID,49,VALID,0.581055,
2002-06-12, 00:43:00,VALID,918.021,VALID,0,VALID,98.8024,VALID,0.0169808,VALID,18.7354,VALID,55,VALID,0.540402,
2002-06-12, 00:44:00,VALID,918.023,VALID,0,VALID,98.8189,VALID,0,VALID,18.719,VALID,58,VALID,0.42716,
2002-06-12, 00:45:00,VALID,918.023,VALID,0,VALID,98.8316,VALID,0.0169808,VALID,18.719,VALID,58,VALID,0.165234,
2002-06-12, 00:46:00,VALID,918.023,VALID,0,VALID,98.8278,VALID,0.0169808,VALID,18.7197,VALID,58,VALID,0,
2002-06-12, 00:47:00,VALID,918.013,VALID,0,VALID,98.852,VALID,-0.0849042,VALID,18.705,VALID,60,VALID,0,
2002-06-12, 00:48:00,VALID,918.013,VALID,0,VALID,98.8584,VALID,-0.135847,VALID,18.6921,VALID,60,VALID,0,
2002-06-12, 00:49:00,VALID,918.008,VALID,0,VALID,98.9359,VALID,-0.101885,VALID,18.6849,VALID,60,VALID,0.329688,
2002-06-12, 00:50:00,VALID,918.005,VALID,0,VALID,98.9855,VALID,-0.101885,VALID,18.7115,VALID,73,VALID,0.442555,
2002-06-12, 00:51:00,VALID,918,VALID,0,VALID,98.9741,VALID,-0.118866,VALID,18.7209,VALID,73,VALID,0.363086,
2002-06-12, 00:52:00,VALID,917.984,VALID,0,VALID,98.9868,VALID,-0.118866,VALID,18.7174,VALID,73,VALID,0.355114,
2002-06-12, 00:53:00,VALID,917.968,VALID,0,VALID,98.9868,VALID,-0.101885,VALID,18.7241,VALID,73,VALID,0.43817,
2002-06-12, 00:54:00,VALID,917.961,VALID,0,VALID,98.9741,VALID,-0.0849042,VALID,18.7177,VALID,73,VALID,0.606055,
2002-06-12, 00:55:00,VALID,917.944,VALID,0,VALID,98.9855,VALID,-0.0509425,VALID,18.7068,VALID,76,VALID,0.647098,
2002-06-12, 00:56:00,VALID,917.945,VALID,0,VALID,99.0224,VALID,0,VALID,18.713,VALID,75,VALID,0.654871,
2002-06-12, 00:57:00,VALID,917.935,VALID,0,VALID,99.0313,VALID,-0.0169808,VALID,18.7292,VALID,75,VALID,0.616992,
2002-06-12, 00:58:00,VALID,917.92,VALID,0,VALID,99.0402,VALID,-0.0339617,VALID,18.7327,VALID,75,VALID,0.702415,
2002-06-12, 00:59:00,VALID,917.924,VALID,0,VALID,99.0478,VALID,-0.0339617,VALID,18.729,VALID,83,VALID,0.731696,
2002-06-12, 01:00:00,VALID,917.908,VALID,0,VALID,99.0771,VALID,0,VALID,18.7322,VALID,88,VALID,0.699023,
2002-06-12, 01:01:00,VALID,917.891,VALID,0,VALID,99.0885,VALID,0,VALID,18.7389,VALID,88,VALID,0.603348,
2002-06-12, 01:02:00,VALID,917.886,VALID,0,VALID,99.1063,VALID,-0.0169808,VALID,18.7356,VALID,89,VALID,0.452206,
2002-06-12, 01:03:00,VALID,917.858,VALID,0,VALID,99.1216,VALID,0,VALID,18.7488,VALID,88,VALID,0.451562,
2002-06-12, 01:04:00,VALID,917.852,VALID,0,VALID,99.1368,VALID,0,VALID,18.7548,VALID,88,VALID,0.442235,
2002-06-12, 01:05:00,VALID,917.843,VALID,0,VALID,99.1483,VALID,0,VALID,18.7809,VALID,89,VALID,0.280134,
2002-06-12, 01:06:00,VALID,917.842,VALID,0,VALID,99.1496,VALID,0,VALID,18.7839,VALID,88,VALID,0.246875,
2002-06-12, 01:07:00,VALID,917.825,VALID,0,VALID,99.1546,VALID,0,VALID,18.7903,VALID,88,VALID,0.296205,
2002-06-12, 01:08:01,VALID,917.808,VALID,0,VALID,99.1318,VALID,0,VALID,18.7866,VALID,88,VALID,0.403263,
2002-06-12, 01:09:00,VALID,917.806,VALID,0,VALID,99.1305,VALID,0,VALID,18.7935,VALID,89,VALID,0.665039,
2002-06-12, 01:10:00,VALID,917.786,VALID,0,VALID,99.1356,VALID,0.0169808,VALID,18.7772,VALID,90,VALID,0.671165,
2002-06-12, 01:11:00,VALID,917.782,VALID,0,VALID,99.1394,VALID,0,VALID,18.7906,VALID,93,VALID,0.540625,
2002-06-12, 01:12:00,VALID,917.765,VALID,0,VALID,99.1432,VALID,0,VALID,18.8002,VALID,95,VALID,0.463672,
2002-06-12, 01:13:00,VALID,917.755,VALID,0,VALID,99.1356,VALID,0,VALID,18.8028,VALID,95,VALID,0.41875,
2002-06-12, 01:14:01,VALID,917.734,VALID,0,VALID,99.1267,VALID,0,VALID,18.8062,VALID,95,VALID,0.588925,
2002-06-12, 01:15:00,VALID,917.716,VALID,0,VALID,99.1343,VALID,0,VALID,18.8229,VALID,97,VALID,0.836719,
2002-06-12, 01:16:00,VALID,917.702,VALID,0,VALID,99.1,VALID,0,VALID,18.8194,VALID,97,VALID,0.871922,
2002-06-12, 01:17:00,VALID,917.685,VALID,0,VALID,99.072,VALID,0,VALID,18.8325,VALID,93,VALID,0.843527,
2002-06-12, 01:18:00,VALID,917.681,VALID,0,VALID,99.0631,VALID,0,VALID,18.8293,VALID,89,VALID,0.725195,
2002-06-12, 01:19:00,VALID,917.679,VALID,0,VALID,99.0364,VALID,0,VALID,18.8261,VALID,87,VALID,0.691964,
2002-06-12, 01:20:01,VALID,917.667,VALID,0,VALID,99.0211,VALID,-0.0169808,VALID,18.8254,VALID,90,VALID,0.835478,
2002-06-12, 01:21:00,VALID,917.667,VALID,0,VALID,99.0262,VALID,0,VALID,18.8355,VALID,87,VALID,0.882813,
2002-06-12, 01:22:00,VALID,917.657,VALID,0,VALID,99.0084,VALID,0,VALID,18.842,VALID,89,VALID,0.705019,
2002-06-12, 01:23:00,VALID,917.659,VALID,0,VALID,98.9944,VALID,0,VALID,18.8422,VALID,92,VALID,0.720982,
2002-06-12, 01:24:00,VALID,917.655,VALID,0,VALID,98.9652,VALID,0,VALID,18.8551,VALID,91,VALID,0.610742,
2002-06-12, 01:25:00,VALID,917.649,VALID,0,VALID,98.9525,VALID,0,VALID,18.8678,VALID,91,VALID,0.51183,
2002-06-12, 01:26:01,VALID,917.652,VALID,0,VALID,98.9232,VALID,0,VALID,18.8607,VALID,91,VALID,0.575597,
2002-06-12, 01:27:00,VALID,917.644,VALID,0,VALID,98.9118,VALID,0,VALID,18.8706,VALID,92,VALID,0.544336,
2002-06-12, 01:28:00,VALID,917.629,VALID,0,VALID,98.899,VALID,0,VALID,18.877,VALID,96,VALID,0.614347,
2002-06-12, 01:29:00,VALID,917.624,VALID,0,VALID,98.9092,VALID,0,VALID,18.8969,VALID,99,VALID,0.720089,
2002-06-12, 01:30:00,VALID,917.613,VALID,0,VALID,98.9168,VALID,0,VALID,18.8934,VALID,110,VALID,0.768164,
2002-06-12, 01:31:00,VALID,917.608,VALID,0,VALID,98.9181,VALID,0.0169808,VALID,18.9195,VALID,124,VALID,1.05424,
2002-06-12, 01:32:01,VALID,917.584,VALID,0,VALID,98.9079,VALID,0,VALID,18.9257,VALID,111,VALID,0.900046,
2002-06-12, 01:33:00,VALID,917.562,VALID,0,VALID,98.9067,VALID,-0.0169808,VALID,18.9158,VALID,122,VALID,0.513281,
2002-06-12, 01:34:00,VALID,917.548,VALID,0,VALID,98.8927,VALID,-0.0169808,VALID,18.929,VALID,119,VALID,0.872396,
2002-06-12, 01:35:00,VALID,917.529,VALID,0,VALID,98.8952,VALID,0,VALID,18.9223,VALID,117,VALID,1.16317,
2002-06-12, 01:36:00,VALID,917.51,VALID,0,VALID,98.9067,VALID,0,VALID,18.9324,VALID,112,VALID,0.696875,
2002-06-12, 01:37:00,VALID,917.497,VALID,0,VALID,98.9092,VALID,0,VALID,18.926,VALID,106,VALID,0.635045,
2002-06-12, 01:38:01,VALID,917.492,VALID,0,VALID,98.9219,VALID,0.0169808,VALID,18.9227,VALID,106,VALID,0.746783,
2002-06-12, 01:39:00,VALID,917.496,VALID,0,VALID,98.9397,VALID,0.0169808,VALID,18.9123,VALID,108,VALID,0.682617,
2002-06-12, 01:40:00,VALID,917.488,VALID,0,VALID,98.9537,VALID,-0.0509425,VALID,18.9133,VALID,112,VALID,0.891335,
2002-06-12, 01:41:00,VALID,917.485,VALID,0,VALID,98.9652,VALID,-0.0849042,VALID,18.9142,VALID,107,VALID,0.905804,
2002-06-12, 01:42:00,VALID,917.46,VALID,0,VALID,98.9741,VALID,-0.101885,VALID,18.908,VALID,112,VALID,0.848047,
2002-06-12, 01:43:00,VALID,917.453,VALID,0,VALID,98.9753,VALID,-0.101885,VALID,18.8946,VALID,102,VALID,0.614732,
2002-06-12, 01:44:01,VALID,917.44,VALID,0,VALID,98.9931,VALID,-0.101885,VALID,18.8914,VALID,104,VALID,0.48966,
2002-06-12, 01:45:00,VALID,917.428,VALID,0,VALID,99.0224,VALID,-0.101885,VALID,18.9016,VALID,119,VALID,0.341992,
2002-06-12, 01:46:00,VALID,917.409,VALID,0,VALID,99.0249,VALID,-0.101885,VALID,18.905,VALID,119,VALID,0.768466,
2002-06-12, 01:47:00,VALID,917.385,VALID,0,VALID,99.0402,VALID,-0.118866,VALID,18.8951,VALID,137,VALID,0.785268,
2002-06-12, 01:48:00,VALID,917.361,VALID,0,VALID,99.0631,VALID,-0.101885,VALID,18.8981,VALID,139,VALID,0.411719,
2002-06-12, 01:49:00,VALID,917.349,VALID,0,VALID,99.0783,VALID,-0.0849042,VALID,18.9115,VALID,131,VALID,0.334598,
2002-06-12, 01:50:01,VALID,917.323,VALID,0,VALID,99.0758,VALID,-0.101885,VALID,18.9075,VALID,124,VALID,0.623621,
2002-06-12, 01:51:00,VALID,917.298,VALID,0,VALID,99.0707,VALID,-0.118866,VALID,18.9013,VALID,139,VALID,0.457617,
2002-06-12, 01:52:00,VALID,917.28,VALID,0,VALID,99.0783,VALID,-0.101885,VALID,18.9083,VALID,148,VALID,0.412879,
2002-06-12, 01:53:00,VALID,917.26,VALID,0,VALID,99.0783,VALID,-0.0849042,VALID,18.9018,VALID,120,VALID,0.581473,
2002-06-12, 01:54:00,VALID,917.247,VALID,0,VALID,99.086,VALID,-0.101885,VALID,18.8953,VALID,100,VALID,0.685547,
2002-06-12, 01:55:00,VALID,917.23,VALID,0,VALID,99.0834,VALID,-0.0509425,VALID,18.8815,VALID,97,VALID,0.741295,
2002-06-12, 01:56:01,VALID,917.236,VALID,0,VALID,99.0936,VALID,-0.0509425,VALID,18.8752,VALID,98,VALID,0.523897,
2002-06-12, 01:57:00,VALID,917.235,VALID,0,VALID,99.0872,VALID,-0.0339617,VALID,18.8693,VALID,96,VALID,0.43457,
2002-06-12, 01:58:00,VALID,917.232,VALID,0,VALID,99.0898,VALID,-0.0169808,VALID,18.869,VALID,97,VALID,0.504261,
2002-06-12, 01:59:00,VALID,917.235,VALID,0,VALID,99.1254,VALID,-0.0339617,VALID,18.8593,VALID,87,VALID,0.46317,
2002-06-12, 02:00:00,VALID,917.23,VALID,0,VALID,99.1267,VALID,-0.0509425,VALID,18.8551,VALID,83,VALID,0.225781,
2002-06-12, 02:01:00,VALID,917.22,VALID,0,VALID,99.1267,VALID,-0.0169808,VALID,18.869,VALID,83,VALID,0.210938,
2002-06-12, 02:02:01,VALID,917.216,VALID,0,VALID,99.1139,VALID,-0.0509425,VALID,18.8489,VALID,82,VALID,0.352711,
2002-06-12, 02:03:00,VALID,917.211,VALID,0,VALID,99.1139,VALID,-0.0169808,VALID,18.8561,VALID,79,VALID,0.335742,
2002-06-12, 02:04:00,VALID,917.209,VALID,0,VALID,99.1114,VALID,-0.0339617,VALID,18.8429,VALID,93,VALID,0.557528,
2002-06-12, 02:05:00,VALID,917.191,VALID,0,VALID,99.1063,VALID,-0.0169808,VALID,18.8395,VALID,96,VALID,0.661161,
2002-06-12, 02:06:00,VALID,917.174,VALID,0,VALID,99.1216,VALID,-0.0679233,VALID,18.8469,VALID,97,VALID,0.550781,
2002-06-12, 02:07:00,VALID,917.172,VALID,0,VALID,99.1216,VALID,-0.0849042,VALID,18.8496,VALID,93,VALID,0.50067,
2002-06-12, 02:08:01,VALID,917.153,VALID,0,VALID,99.119,VALID,-0.0849042,VALID,18.8432,VALID,100,VALID,0.787224,
2002-06-12, 02:09:00,VALID,917.141,VALID,0,VALID,99.1178,VALID,-0.101885,VALID,18.8459,VALID,104,VALID,0.8,
2002-06-12, 02:10:00,VALID,917.13,VALID,0,VALID,99.105,VALID,0,VALID,18.8489,VALID,113,VALID,0.656013,
2002-06-12, 02:11:00,VALID,917.124,VALID,0,VALID,99.1203,VALID,0.0339617,VALID,18.8678,VALID,122,VALID,0.607589,
2002-06-12, 02:12:00,VALID,917.119,VALID,0,VALID,99.1165,VALID,0.0169808,VALID,18.8874,VALID,115,VALID,0.447461,
2002-06-12, 02:13:00,VALID,917.114,VALID,0,VALID,99.0974,VALID,0.0169808,VALID,18.8999,VALID,113,VALID,0.836607,
2002-06-12, 02:14:01,VALID,917.103,VALID,0,VALID,99.0618,VALID,0.0169808,VALID,18.9004,VALID,111,VALID,0.715303,
2002-06-12, 02:15:00,VALID,917.091,VALID,0,VALID,99.0542,VALID,0.0849042,VALID,18.8867,VALID,121,VALID,0.691602,
2002-06-12, 02:16:00,VALID,917.099,VALID,0,VALID,99.0351,VALID,0.0509425,VALID,18.8962,VALID,129,VALID,0.572443,
2002-06-12, 02:17:00,VALID,917.082,VALID,0,VALID,99.0313,VALID,0.0849042,VALID,18.919,VALID,122,VALID,0.672321,
2002-06-12, 02:18:00,VALID,917.074,VALID,0,VALID,99.0046,VALID,0.0169808,VALID,18.9156,VALID,118,VALID,0.611133,
2002-06-12, 02:19:00,VALID,917.051,VALID,0,VALID,98.9639,VALID,0.0169808,VALID,18.9225,VALID,107,VALID,0.636161,
2002-06-12, 02:20:01,VALID,917.039,VALID,0,VALID,98.9296,VALID,0.0339617,VALID,18.9324,VALID,110,VALID,0.393382,
2002-06-12, 02:21:00,VALID,917.016,VALID,0,VALID,98.9092,VALID,0.0169808,VALID,18.9253,VALID,108,VALID,0.00390625,
2002-06-12, 02:22:00,VALID,916.993,VALID,0,VALID,98.913,VALID,0.0339617,VALID,18.9421,VALID,108,VALID,0,
2002-06-12, 02:23:00,VALID,916.98,VALID,0,VALID,98.8851,VALID,0.0509425,VALID,18.9481,VALID,108,VALID,0,
2002-06-12, 02:24:00,VALID,916.963,VALID,0,VALID,98.852,VALID,0.0679233,VALID,18.9474,VALID,108,VALID,0,
2002-06-12, 02:25:01,VALID,916.954,VALID,0,VALID,98.8444,VALID,0.0169808,VALID,18.9553,VALID,108,VALID,0,
2002-06-12, 02:26:01,VALID,916.941,VALID,0,VALID,98.8406,VALID,-0.0509425,VALID,18.9622,VALID,108,VALID,0,
2002-06-12, 02:27:00,VALID,916.945,VALID,0,VALID,98.8304,VALID,-0.0509425,VALID,18.9587,VALID,108,VALID,0,
2002-06-12, 02:28:00,VALID,916.94,VALID,0,VALID,98.8431,VALID,-0.0339617,VALID,18.9818,VALID,108,VALID,0,
2002-06-12, 02:29:00,VALID,916.939,VALID,0,VALID,98.8927,VALID,-0.0679233,VALID,18.9982,VALID,108,VALID,0,
2002-06-12, 02:30:00,VALID,916.926,VALID,0,VALID,98.8456,VALID,-0.0679233,VALID,19.0044,VALID,108,VALID,0.0183594,
2002-06-12, 02:31:01,VALID,916.925,VALID,0,VALID,98.8062,VALID,-0.0339617,VALID,19.0042,VALID,108,VALID,0.194643,
2002-06-12, 02:32:01,VALID,916.911,VALID,0,VALID,98.7935,VALID,-0.0509425,VALID,18.9814,VALID,108,VALID,0.0133272,
2002-06-12, 02:33:00,VALID,916.902,VALID,0,VALID,98.81,VALID,-0.0509425,VALID,19.0047,VALID,108,VALID,0.0214844,
2002-06-12, 02:34:01,VALID,916.879,VALID,0,VALID,98.8062,VALID,-0.0849042,VALID,19.0012,VALID,108,VALID,0,
2002-06-12, 02:35:00,VALID,916.859,VALID,0,VALID,98.7973,VALID,-0.0509425,VALID,19.0077,VALID,92,VALID,0.0388393,
2002-06-12, 02:36:00,VALID,916.852,VALID,0,VALID,98.7821,VALID,-0.0339617,VALID,18.9977,VALID,80,VALID,0,
2002-06-12, 02:37:01,VALID,916.829,VALID,0,VALID,98.7833,VALID,-0.0169808,VALID,18.9915,VALID,80,VALID,0,
2002-06-12, 02:38:01,VALID,916.82,VALID,0,VALID,98.7617,VALID,-0.0339617,VALID,18.9751,VALID,80,VALID,0,
2002-06-12, 02:39:00,VALID,916.792,VALID,0,VALID,98.7528,VALID,-0.0339617,VALID,18.9687,VALID,80,VALID,0,
2002-06-12, 02:40:01,VALID,916.782,VALID,0,VALID,98.7846,VALID,0,VALID,18.9721,VALID,81,VALID,0,
2002-06-12, 02:41:01,VALID,916.757,VALID,0,VALID,98.8126,VALID,0.0849042,VALID,18.9672,VALID,81,VALID,0,
2002-06-12, 02:42:01,VALID,916.745,VALID,0,VALID,98.8151,VALID,0.0679233,VALID,18.9571,VALID,80,VALID,0,
2002-06-12, 02:43:01,VALID,916.741,VALID,0,VALID,98.8037,VALID,0.0339617,VALID,18.965,VALID,80,VALID,0.00133929,
2002-06-12, 02:44:01,VALID,916.741,VALID,0,VALID,98.8075,VALID,0.0679233,VALID,18.9481,VALID,80,VALID,0.0011489,
2002-06-12, 02:45:01,VALID,916.746,VALID,0,VALID,98.8049,VALID,0.0679233,VALID,18.9349,VALID,125,VALID,0.35293,
2002-06-12, 02:46:01,VALID,916.748,VALID,0,VALID,98.7782,VALID,0.0339617,VALID,18.9089,VALID,146,VALID,0.519176,
2002-06-12, 02:47:01,VALID,916.764,VALID,0,VALID,98.7579,VALID,0.0679233,VALID,18.8934,VALID,144,VALID,0.521875,
2002-06-12, 02:48:01,VALID,916.749,VALID,0,VALID,98.7617,VALID,0.0679233,VALID,18.8572,VALID,142,VALID,0.574023,
2002-06-12, 02:49:01,VALID,916.755,VALID,0,VALID,98.763,VALID,0.0339617,VALID,18.8413,VALID,140,VALID,0.434152,
2002-06-12, 02:50:01,VALID,916.737,VALID,0,VALID,98.7744,VALID,0.0339617,VALID,18.8219,VALID,131,VALID,0.53171,
2002-06-12, 02:51:01,VALID,916.729,VALID,0,VALID,98.7795,VALID,0.0169808,VALID,18.809,VALID,130,VALID,0.554102,
2002-06-12, 02:52:01,VALID,916.707,VALID,0,VALID,98.8049,VALID,0.0679233,VALID,18.8062,VALID,134,VALID,0.613163,
2002-06-12, 02:53:01,VALID,916.689,VALID,0,VALID,98.8139,VALID,0.0509425,VALID,18.7998,VALID,135,VALID,0.53058,
2002-06-12, 02:54:01,VALID,916.674,VALID,0,VALID,98.8266,VALID,0,VALID,18.7836,VALID,124,VALID,0.448438,
2002-06-12, 02:55:01,VALID,916.644,VALID,0,VALID,98.8202,VALID,0.0679233,VALID,18.7737,VALID,120,VALID,0.514732,
2002-06-12, 02:56:01,VALID,916.625,VALID,0,VALID,98.7973,VALID,0,VALID,18.7645,VALID,116,VALID,0.743796,
2002-06-12, 02:57:01,VALID,916.6,VALID,0,VALID,98.81,VALID,0,VALID,18.7518,VALID,116,VALID,0.703516,
2002-06-12, 02:58:01,VALID,916.592,VALID,0,VALID,98.7757,VALID,0,VALID,18.7384,VALID,104,VALID,0.659091,
2002-06-12, 02:59:00,VALID,916.573,VALID,0,VALID,98.7655,VALID,0.0169808,VALID,18.7361,VALID,93,VALID,0.647768,
2002-06-12, 03:00:00,VALID,916.57,VALID,0,VALID,98.7554,VALID,0,VALID,18.7225,VALID,91,VALID,0.854102,
2002-06-12, 03:01:00,VALID,916.568,VALID,0,VALID,98.8024,VALID,0,VALID,18.7165,VALID,84,VALID,0.848884,
2002-06-12, 03:02:00,VALID,916.546,VALID,0,VALID,98.8494,VALID,0,VALID,18.7195,VALID,79,VALID,0.800092,
2002-06-12, 03:03:00,VALID,916.542,VALID,0,VALID,98.88,VALID,-0.0169808,VALID,18.7156,VALID,91,VALID,0.741602,
2002-06-12, 03:04:00,VALID,916.535,VALID,0,VALID,98.9029,VALID,0,VALID,18.7066,VALID,97,VALID,0.788116,
2002-06-12, 03:05:00,VALID,916.524,VALID,0,VALID,98.9283,VALID,0,VALID,18.71,VALID,108,VALID,0.75558,
2002-06-12, 03:06:00,VALID,916.516,VALID,0,VALID,98.9359,VALID,0.0169808,VALID,18.7098,VALID,106,VALID,0.484766,
2002-06-12, 03:07:00,VALID,916.504,VALID,0,VALID,98.941,VALID,0,VALID,18.6872,VALID,127,VALID,0.360714,
2002-06-12, 03:08:00,VALID,916.487,VALID,0,VALID,98.9626,VALID,0.0169808,VALID,18.6674,VALID,145,VALID,0.377987,
2002-06-12, 03:09:00,VALID,916.478,VALID,0,VALID,98.9779,VALID,0.0509425,VALID,18.6777,VALID,127,VALID,0.437305,
2002-06-12, 03:10:00,VALID,916.467,VALID,0,VALID,99.0173,VALID,0,VALID,18.6614,VALID,119,VALID,0.616714,
2002-06-12, 03:11:00,VALID,916.454,VALID,0,VALID,99.0567,VALID,0.0169808,VALID,18.6648,VALID,116,VALID,0.298438,
2002-06-12, 03:12:00,VALID,916.437,VALID,0,VALID,99.0555,VALID,0.0169808,VALID,18.6579,VALID,116,VALID,0.530273,
2002-06-12, 03:13:00,VALID,916.427,VALID,0,VALID,99.0644,VALID,0.0169808,VALID,18.6519,VALID,118,VALID,0.579241,
2002-06-12, 03:14:00,VALID,916.419,VALID,0,VALID,99.0682,VALID,0,VALID,18.6288,VALID,123,VALID,0.587776,
2002-06-12, 03:15:00,VALID,916.405,VALID,0,VALID,99.105,VALID,0.0169808,VALID,18.6224,VALID,115,VALID,0.624219,
2002-06-12, 03:16:00,VALID,916.4,VALID,0,VALID,99.0872,VALID,0.0169808,VALID,18.6164,VALID,92,VALID,0.645597,
2002-06-12, 03:17:00,VALID,916.395,VALID,0,VALID,99.1076,VALID,0.0339617,VALID,18.5903,VALID,78,VALID,0.774107,
2002-06-12, 03:18:00,VALID,916.376,VALID,0,VALID,99.1457,VALID,0.0339617,VALID,18.5873,VALID,79,VALID,0.758789,
2002-06-12, 03:19:00,VALID,916.366,VALID,0,VALID,99.1318,VALID,0,VALID,18.5608,VALID,75,VALID,0.769196,
2002-06-12, 03:20:00,VALID,916.353,VALID,0,VALID,99.1394,VALID,0.0169808,VALID,18.5451,VALID,75,VALID,0.970129,
2002-06-12, 03:21:00,VALID,916.339,VALID,0,VALID,99.189,VALID,0.0169808,VALID,18.5449,VALID,79,VALID,1.09004,
2002-06-12, 03:22:00,VALID,916.325,VALID,0,VALID,99.2271,VALID,0,VALID,18.5548,VALID,84,VALID,1.17235,
2002-06-12, 03:23:00,VALID,916.315,VALID,0,VALID,99.2538,VALID,0,VALID,18.5543,VALID,92,VALID,1.06027,
2002-06-12, 03:24:00,VALID,916.301,VALID,0,VALID,99.2169,VALID,0.0169808,VALID,18.5386,VALID,93,VALID,0.760352,
2002-06-12, 03:25:00,VALID,916.284,VALID,0,VALID,99.2411,VALID,0.0169808,VALID,18.529,VALID,104,VALID,0.748884,
2002-06-12, 03:26:00,VALID,916.266,VALID,0,VALID,99.2729,VALID,0.0169808,VALID,18.5416,VALID,104,VALID,0.799862,
2002-06-12, 03:27:00,VALID,916.259,VALID,0,VALID,99.2856,VALID,0,VALID,18.5645,VALID,97,VALID,0.758008,
2002-06-12, 03:28:00,VALID,916.246,VALID,0,VALID,99.2843,VALID,0.0339617,VALID,18.5809,VALID,103,VALID,0.656487,
2002-06-12, 03:29:00,VALID,916.237,VALID,0,VALID,99.2742,VALID,0.0509425,VALID,18.5839,VALID,95,VALID,0.760045,
2002-06-12, 03:30:00,VALID,916.234,VALID,0,VALID,99.2691,VALID,0.0169808,VALID,18.5905,VALID,104,VALID,0.933398,
2002-06-12, 03:31:00,VALID,916.214,VALID,0,VALID,99.2538,VALID,0.0169808,VALID,18.5972,VALID,92,VALID,0.896652,
2002-06-12, 03:32:00,VALID,916.215,VALID,0,VALID,99.2449,VALID,0.0509425,VALID,18.6099,VALID,92,VALID,0.898897,
2002-06-12, 03:33:00,VALID,916.213,VALID,0,VALID,99.2386,VALID,0.0509425,VALID,18.6162,VALID,110,VALID,1.25469,
2002-06-12, 03:34:00,VALID,916.205,VALID,0,VALID,99.2297,VALID,0.0339617,VALID,18.6154,VALID,110,VALID,1.22348,
2002-06-12, 03:35:00,VALID,916.189,VALID,0,VALID,99.2144,VALID,0.0339617,VALID,18.6293,VALID,114,VALID,1.11384,
2002-06-12, 03:36:00,VALID,916.187,VALID,0,VALID,99.1623,VALID,0,VALID,18.6191,VALID,126,VALID,0.804297,